Content
SEND FEEDBACK

Daily
Averages
Monthly
Summary
United States of America

FAYETTEVILLE, TENNESSEE


Home > North America > United States > Tennessee
Elevation: 700 feet     Latitude: 35 10N     Longitude: 086 33W

WEATHER
 
SELECT A DAY
Number of Records: 298,595;   Date Range: 4/22/02 - 9/18/14
 
SHARE

PRINT THIS DATA

[ ← Previous Day ]
WEATHER ALMANAC - JULY 1, 2014
[ Next Day → ]
[ °C ]   °F
Weather ElementAverageHighLow
Temperature80.5 °F91.4 °F (3:55 pm)68 °F (5:35 am)
Dewpoint65.6 °F69.8 °F (8:15 am)55.4 °F (4:35 pm)
Humidity63.6 %88 % (2:55 am)29 % (4:35 pm)
Barometer29.97 in30.04 in (7:15 am)29.91 in (5:35 pm)
Wind Speed4.8 mph12.7 mph (3:35 pm)
Weather ElementAverage
Visibility6.7 mi
Wind DirectionSSE (153.4 °)

Weather ElementTotal
Precipitation---
Cooling Degree Days14.7 (Base 65)
Growing Degree Days29.7 (Base 50)
Averaged from 68 records on July 1, 2014
WEATHER CONDITIONS BREAKOUT
WIND DIRECTION BREAKOUT
WEATHER BY HOUR - JULY 1, 2014
[ °C ]   °F
Local TimeTemperatureDewpointHumidityBarometerVisibilityWind DirectionWind SpeedGust SpeedPrecipitationEventsConditions
12:35 AM73.4 °F68.0 °F83 %29.96 in7.0 miSouth (170°)4.6 mphClear
12:55 AM73.4 °F68.0 °F83 %29.95 in7.0 miSSE (160°)3.5 mphClear
1:15 AM73.4 °F68.0 °F83 %29.94 in7.0 miSouth (180°)3.5 mphClear
1:35 AM73.4 °F68.0 °F83 %29.94 in7.0 miSouth (170°)3.5 mphClear
1:55 AM73.4 °F68.0 °F83 %29.94 in7.0 miSouth (170°)3.5 mphClear
2:15 AM73.4 °F68.0 °F83 %29.94 in7.0 miCalmClear
2:35 AM73.4 °F68.0 °F83 %29.95 in7.0 miCalmClear
2:55 AM71.6 °F68.0 °F88 %29.96 in5.0 miCalmClear
3:15 AM71.6 °F68.0 °F88 %29.96 in7.0 miCalmClear
3:35 AM69.8 °F66.2 °F88 %29.97 in7.0 miCalmClear
3:55 AM69.8 °F66.2 °F88 %29.98 in5.0 miCalmClear
4:15 AM69.8 °F66.2 °F88 %29.98 in7.0 miCalmClear
4:35 AM69.8 °F66.2 °F88 %29.99 in7.0 miCalmClear
4:55 AM69.8 °F64.4 °F83 %30.00 in7.0 miCalmClear
5:15 AM69.8 °F64.4 °F83 %30.00 in5.0 miCalmClear
5:35 AM68.0 °F64.4 °F88 %30.01 in7.0 miCalmClear
5:55 AM69.8 °F64.4 °F83 %30.01 in5.0 miCalmClear
6:15 AM69.8 °F64.4 °F83 %30.02 in5.0 miCalmClear
6:35 AM69.8 °F66.2 °F88 %30.03 in5.0 miCalmClear
6:55 AM71.6 °F68.0 °F88 %30.03 in5.0 miCalmClear
7:15 AM73.4 °F68.0 °F83 %30.04 in7.0 miCalmClear
7:35 AM75.2 °F68.0 °F78 %30.03 in7.0 miSouth (180°)4.6 mphClear
7:55 AM77.0 °F68.0 °F74 %30.03 in7.0 miCalmClear
8:15 AM78.8 °F69.8 °F74 %30.03 in7.0 miCalmClear
8:35 AM78.8 °F69.8 °F74 %30.03 in7.0 miSW (230°)5.8 mphClear
8:55 AM80.6 °F69.8 °F70 %30.02 in7.0 miWest (270°)6.9 mphClear
9:15 AM80.6 °F69.8 °F70 %30.02 in7.0 miWest (260°)10.4 mphClear
9:35 AM82.4 °F69.8 °F66 %30.01 in7.0 miWNW (300°)8.1 mphClear
9:55 AM82.4 °F69.8 °F66 %30.01 in7.0 miWest (270°)9.2 mphScattered Clouds
10:15 AM84.2 °F69.8 °F62 %30.00 in7.0 miWSW (240°)8.1 mphScattered Clouds
10:35 AM84.2 °F69.8 °F62 %29.99 in7.0 miSSW (210°)9.2 mphClear
11:15 AM86.0 °F68.0 °F55 %29.99 in7.0 miWSW (240°)9.2 mphClear
11:35 AM86.0 °F68.0 °F55 %29.99 in7.0 miWest (260°)10.4 mphScattered Clouds
12:15 PM87.8 °F68.0 °F52 %29.99 in7.0 miWest (270°)8.1 mphScattered Clouds
12:35 PM87.8 °F66.2 °F49 %29.99 in7.0 miSW (220°)10.4 mphScattered Clouds
12:55 PM87.8 °F64.4 °F46 %29.98 in7.0 miSW (220°)9.2 mphClear
1:15 PM87.8 °F64.4 °F46 %29.99 in7.0 miWest (260°)9.2 mphScattered Clouds
1:35 PM89.6 °F64.4 °F43 %29.98 in7.0 miSW (220°)6.9 mphScattered Clouds
1:55 PM89.6 °F64.4 °F43 %29.97 in7.0 miSW (230°)10.4 mphClear
2:15 PM89.6 °F64.4 °F43 %29.96 in7.0 miWSW (240°)5.8 mphClear
2:35 PM89.6 °F64.4 °F43 %29.95 in7.0 miSW (230°)8.1 mphClear
2:55 PM89.6 °F62.6 °F40 %29.95 in7.0 miSW (230°)9.2 mphClear
3:15 PM89.6 °F62.6 °F40 %29.93 in7.0 miSW (220°)6.9 mphClear
3:35 PM89.6 °F62.6 °F40 %29.94 in7.0 miSW (220°)12.7 mphClear
3:55 PM91.4 °F60.8 °F36 %29.93 in7.0 miWSW (250°)10.4 mphClear
4:15 PM91.4 °F60.8 °F36 %29.92 in7.0 miSW (220°)10.4 mphClear
4:35 PM91.4 °F55.4 °F29 %29.93 in7.0 miWSW (240°)9.2 mphClear
4:55 PM91.4 °F57.2 °F31 %29.93 in5.0 miWSW (250°)10.4 mphHaze
5:15 PM91.4 °F55.4 °F29 %29.92 in7.0 miSW (220°)8.1 mphClear
5:35 PM91.4 °F57.2 °F31 %29.91 in7.0 miWSW (240°)5.8 mphClear
5:55 PM89.6 °F60.8 °F38 %29.91 in5.0 miSW (220°)9.2 mphHaze
6:15 PM89.6 °F59.0 °F36 %29.91 in5.0 miSW (220°)6.9 mphHaze
6:35 PM87.8 °F60.8 °F40 %29.91 in7.0 miSSW (210°)6.9 mphClear
6:55 PM87.8 °F62.6 °F43 %29.91 in5.0 miSSW (200°)6.9 mphHaze
7:15 PM86.0 °F64.4 °F48 %29.91 in7.0 miSSW (210°)6.9 mphClear
7:35 PM84.2 °F64.4 °F51 %29.91 in7.0 miSSW (200°)5.8 mphClear
7:55 PM82.4 °F64.4 °F54 %29.92 in7.0 miSSW (200°)4.6 mphClear
8:15 PM80.6 °F66.2 °F61 %29.93 in7.0 miSW (220°)4.6 mphClear
8:35 PM80.6 °F66.2 °F61 %29.95 in7.0 miCalmClear
8:55 PM80.6 °F66.2 °F61 %29.96 in7.0 miSW (230°)3.5 mphClear
9:15 PM78.8 °F66.2 °F65 %29.96 in7.0 miWSW (250°)3.5 mphClear
9:35 PM78.8 °F66.2 °F65 %29.98 in7.0 miCalmClear
9:55 PM77.0 °F68.0 °F74 %29.99 in7.0 miCalmClear
10:15 PM78.8 °F68.0 °F69 %29.99 in7.0 miSW (220°)3.5 mphClear
10:35 PM78.8 °F68.0 °F69 %29.99 in7.0 miSW (220°)3.5 mphClear
10:55 PM77.0 °F68.0 °F74 %30.01 in7.0 miWest (270°)4.6 mphClear
11:15 PM75.2 °F68.0 °F78 %30.01 in7.0 miCalmScattered Clouds
11:35 PM78.8 °F68.0 °F69 %30.01 in7.0 miWest (270°)4.6 mphScattered Clouds
Hourly data recorded from KMDQ, located miles away from Fayetteville, Tennessee







STORIES FROM OUR PARTNERS